Location: Sternwarte ZA, Rosenfeld-Brittheim
(48.2889°N, 8.6789°E)
Time: 08:36:16
(UTC+02:00)

ISS - Pass Details

Date: 19 July 2018
Orbit: 402 x 408 km, 51.6° (Epoch: 16 July)

Event Time Altitude Azimuth Distance (km) Brightness Sun altitude
Exits shadow 01:30:36 - 273° (W) 1,553 -0.8 -20.8°
Reaches altitude 10° 01:30:49 10° 274° (W) 1,465 -1.0 -20.8°
Maximum altitude 01:34:02 49° 351° (N) 531 -2.9 -20.8°
Drops below altitude 10° 01:37:15 10° 68° (ENE) 1,470 -0.7 -20.8°
Sets 01:39:23 0° 74° (ENE) 2,332 0.3 -20.8°
